Location: Borea
(45.6167°N, 23.0167°E)
Time: 04:03:09
(UTC+00:00)

PAYLOAD B - Pass Details

Date: 03 February 2023
Orbit: 849 x 870 km, 99.1° (Epoch: 29 March)

Event Time Altitude Azimuth Distance (km) Brightness Sun altitude
Rises 17:03:53 0° 164° (SSE) 3,417 7.3 -15.5°
Reaches altitude 10° 17:06:15 10° 165° (SSE) 2,482 6.6 -15.9°
Maximum altitude 17:11:46 87° 256° (WSW) 861 4.2 -16.9°
Drops below altitude 10° 17:17:18 10° 345° (NNW) 2,489 6.8 -17.8°
Sets 17:19:41 0° 346° (NNW) 3,427 7.5 -18.2°
